Location: Unspecified
(0.0000°N, 0.0000°E)
Time: 13:19:22
(UTC+00:00)

LightSail 2 - Pass Details

Date: 17 September 2019
Orbit: 699 x 732 km, 24.0° (Epoch: 17 September)

Event Time Altitude Azimuth Distance (km) Brightness Sun altitude
Exits shadow 03:18:50 13° 54° (NE) 1,923 7.9 -38.9°
Drops below altitude 10° 03:19:27 10° 56° (NE) 2,146 8.2 -38.8°
Sets 03:21:54 0° 59° (ENE) 3,065 9.2 -38.2°
